Hourly Data Report for March 22, 2017

OTTAWA INTL A
ONTARIO

45°19'00.000" N
75°40'00.000" W
114.90 m
6106001
71628
YOW

Download Data

Hourly Data (March 2017)
Hourly Data Report for March 22, 2017
TIME
LST
Temp Definition
°C
Dew Point Definition
°C
Rel Hum Definition
%
Precip. Amount Definition
mm

Wind Dir Definition
10's deg

Wind Spd Definition
km/h
Visibility Definition
km
Stn Press Definition
kPa
Hmdx Definition


Wind Chill Definition


Weather Definition


00:00 -7.1 -13.8 59   33 53 24.1 100.13   -18 LegendNANA
01:00 -8.0 -14.3 61   32 39 24.1 100.29   -18 Mostly Cloudy
02:00 -9.8 -19.7 45   33 49 24.1 100.44   -21 LegendNANA
03:00 -11.4 -21.1 45   33 46 24.1 100.57   -23 LegendNANA
04:00 -13.0 -22.4 46   33 55 24.1 100.76   -26 Clear
05:00 -13.6 -22.2 49   33 31 24.1 100.94   -24 LegendNANA
06:00 -14.5 -22.8 50   34 45 24.1 101.13   -27 LegendNANA
07:00 -14.5 -22.3 52   33 31 24.1 101.28   -26 Clear
08:00 -14.3 -22.4 51   33 42 24.1 101.38   -27 LegendNANA
09:00 -13.3 -21.2 52   31 36 24.1 101.48   -25 LegendNANA
10:00 -12.6 -21.3 49   32 31 24.1 101.55   -23 Clear
11:00 -11.6 -20.6 48   35 25 24.1 101.56   -21 LegendNANA
12:00 -10.6 -19.9 47   31 26 24.1 101.58   -20 LegendNANA
13:00 -10.1 -20.5 43   30 26 24.1 101.58   -19 Clear
14:00 -8.8 -18.7 45   29 32 24.1 101.58   -18 LegendNANA
15:00 -7.8 -18.1 44   29 26 24.1 101.55   -16 LegendNANA
16:00 -7.2 -18.1 42   28 29 24.1 101.55   -16 Clear
17:00 -6.9 -18.7 39   28 29 24.1 101.55   -15 LegendNANA
18:00 -6.8 -17.7 42   28 16 24.1 101.59   -13 LegendNANA
19:00 -7.1 -18.6 40   28 18 24.1 101.64   -14 Clear
20:00 -7.4 -18.0 43   28 14 24.1 101.67   -13 LegendNANA
21:00 -7.8 -17.5 46   29 11 24.1 101.71   -13 LegendNANA
22:00 -8.2 -17.4 48   29 10 24.1 101.73   -13 Clear
23:00 -8.2 -17.9 46   32 17 24.1 101.76   -15 LegendNANA

Notes on Data Quality.

Legend

  • E = Estimated
  • M = Missing
  • NA = Not Available*
  • [empty] = Indicates an unobserved value
Date modified: